Weather History for Glendale Luke AFB, AZ

Change the Weather History Date:

Thursday, May 1, 2014

  Actual Average Record
Temperature  
Mean Temperature 78 °F -  
Max Temperature 90 °F 91 °F 105 °F (1947)
Min Temperature 66 °F 55 °F 40 °F (1967)
Cooling Degree Days 13    
Growing Degree Days 28 (Base 50)    
Moisture  
Dew Point 21 °F    
Average Humidity 12    
Maximum Humidity 20    
Minimum Humidity 6    
Precipitation  
Precipitation 0.00 in - - ()
Sea Level Pressure  
Sea Level Pressure 29.93 in    
Wind  
Wind Speed 15 mph (NNE)    
Max Wind Speed 24 mph    
Max Gust Speed 31 mph    
Visibility 10 miles    
Events      
Averages and records for this station are not official NWS values.
T = Trace of Precipitation, MM = Missing Value Source: NWS Daily Summary

Daily Weather History Graph

Daily Weather History Graph

Search for Another Location

Airport:

Trip Planner

Search our weather history database for the weather conditions in past years. The results will help you decide how hot, cold, wet, or windy it might be!

Date:

Astronomy

May. 01, 2014 Rise Set
Actual Time 5:41 AM MST 7:12 PM MST
Civil Twilight 5:14 AM MST 7:39 PM MST
Nautical Twilight 4:42 AM MST 8:11 PM MST
Astronomical Twilight 4:09 AM MST 8:44 PM MST
Moon 7:34 AM MST (5/1) 9:46 PM MST (5/1)
Length of Visible Light 14h 24m
Length of Day
13h 31m
Waxing Crescent, 7% of the Moon is Illuminated
May 1
Waxing Crescent
May 6
First Quarter
May 14
Full
May 21
Last Quarter
May 28
New

Hourly Weather History & Observations

Time (MST) Temp. Dew Point Humidity Pressure Visibility Wind Dir Wind Speed Gust Speed Precip Events Conditions
12:58 AM 70.3 °F 15.6 °F 12% 29.93 in 10.0 mi North 19.6 mph - N/A   Clear
1:58 AM 69.3 °F 16.3 °F 13% 29.91 in 10.0 mi North 19.6 mph 31.1 mph N/A   Clear
2:58 AM 68.7 °F 16.3 °F 13% 29.90 in 10.0 mi NNE 24.2 mph - N/A   Clear
3:58 AM 68.0 °F 17.4 °F 14% 29.91 in 10.0 mi NNE 19.6 mph 26.5 mph N/A   Clear
4:58 AM 67.6 °F 19.0 °F 16% 29.92 in 10.0 mi North 15.0 mph - N/A   Clear
5:58 AM 66.2 °F 21.9 °F 19% 29.94 in 10.0 mi North 9.2 mph - N/A   Clear
6:58 AM 69.8 °F 23.9 °F 18% 29.97 in 10.0 mi North 12.7 mph - N/A   Clear
7:58 AM 73.4 °F 23.2 °F 15% 29.99 in 10.0 mi NNE 20.7 mph 26.5 mph N/A   Clear
8:58 AM 77.7 °F 23.5 °F 13% 29.99 in 10.0 mi NNE 16.1 mph - N/A   Clear
9:58 AM 81.1 °F 24.4 °F 12% 29.99 in 10.0 mi NE 16.1 mph 25.3 mph N/A   Clear
10:58 AM 83.1 °F 23.9 °F 11% 29.99 in 10.0 mi NE 16.1 mph 21.9 mph N/A   Clear
11:30 AM 84.2 °F 23.0 °F 11% 30.01 in 10.0 mi East 12.7 mph 21.9 mph N/A   Partly Cloudy
11:58 AM 85.8 °F 22.3 °F 10% 29.97 in 10.0 mi NE 15.0 mph 19.6 mph N/A   Partly Cloudy
12:58 PM 86.0 °F 21.4 °F 9% 29.96 in 10.0 mi ENE 9.2 mph - N/A   Partly Cloudy
1:58 PM 86.9 °F 22.1 °F 9% 29.93 in 10.0 mi North 8.1 mph - N/A   Partly Cloudy
2:58 PM 88.2 °F 20.3 °F 8% 29.91 in 10.0 mi Variable 3.5 mph - N/A   Clear
3:58 PM 89.4 °F 18.1 °F 7% 29.88 in 10.0 mi NNW 3.5 mph - N/A   Clear
4:58 PM 90.7 °F 19.2 °F 7% 29.86 in 10.0 mi NNE 6.9 mph 16.1 mph N/A   Clear
5:58 PM 90.5 °F 15.4 °F 6% 29.85 in 10.0 mi North 9.2 mph - N/A   Clear
6:58 PM 88.5 °F 17.4 °F 7% 29.85 in 10.0 mi WSW 4.6 mph - N/A   Clear
7:58 PM 82.8 °F 25.7 °F 12% 29.87 in 10.0 mi West 8.1 mph - N/A   Clear
8:58 PM 77.5 °F 26.2 °F 15% 29.89 in 10.0 mi WNW 6.9 mph - N/A   Clear
9:58 PM 75.0 °F 23.7 °F 15% 29.91 in 10.0 mi ENE 5.8 mph - N/A   Clear
10:58 PM 75.2 °F 26.8 °F 17% 29.92 in 10.0 mi SW 2.3 mph - N/A   Clear
11:58 PM 70.7 °F 27.0 °F 20% 29.94 in 10.0 mi NW 5.8 mph - N/A   Clear